This is the latest recevied weather packets stored in our database for station/object K7KAZ. If no packets are shown the sender has not sent any weather packets the latest 10 day(s).
| Time | Temp. | Humidity | Pressure | Rain* | Wind** | Luminosity | Snow |
|---|---|---|---|---|---|---|---|
| 1778084072 | 20.56° C | 36% | 1018.7 hPa | 0 mm | - | 634 W/m² | - |
| 1778083769 | 20.56° C | 35% | 1018.6 hPa | 0 mm | - | 603 W/m² | - |
| 1778083466 | 20.56° C | 35% | 1018.8 hPa | 0 mm | - | 553 W/m² | - |
| 1778083164 | 20° C | 36% | 1018.7 hPa | 0 mm | - | 588 W/m² | - |
| 1778082861 | 20° C | 36% | 1018.6 hPa | 0 mm | - | 584 W/m² | - |
| 1778081743 | 20° C | 37% | 1018.8 hPa | 0 mm | - | 467 W/m² | - |
| 1778081440 | 20° C | 36% | 1018.7 hPa | 0 mm | - | 427 W/m² | - |
| 1778081137 | 20° C | 37% | 1018.8 hPa | 0 mm | - | 306 W/m² | - |
| 1778080835 | 18.89° C | 38% | 1018.8 hPa | 0 mm | - | 365 W/m² | - |
| 1778080532 | 19.44° C | 38% | 1018.7 hPa | 0 mm | - | 303 W/m² | - |
| 1778080224 | 18.89° C | 38% | 1018.9 hPa | 0 mm | - | 321 W/m² | - |
| 1778079920 | 19.44° C | 38% | 1018.8 hPa | 0 mm | - | 280 W/m² | - |
| 1778079617 | 19.44° C | 38% | 1018.8 hPa | 0 mm | - | 314 W/m² | - |
| 1778079314 | 18.89° C | 39% | 1018.8 hPa | 0 mm | - | 291 W/m² | - |
| 1778079011 | 18.33° C | 40% | 1018.8 hPa | 0 mm | - | 263 W/m² | - |
| 1778078708 | 17.78° C | 40% | 1018.7 hPa | 0 mm | - | 250 W/m² | - |
| 1778078406 | 17.78° C | 41% | 1018.9 hPa | 0 mm | - | 193 W/m² | - |
| 1778078103 | 17.78° C | 40% | 1018.9 hPa | 0 mm | - | 177 W/m² | - |
| 1778077801 | 17.78° C | 41% | 1018.6 hPa | 0 mm | - | 192 W/m² | - |
| 1778077498 | 17.78° C | 41% | 1018.5 hPa | 0 mm | - | 184 W/m² | - |
| 1778077196 | 17.78° C | 41% | 1018.8 hPa | 0 mm | - | 127 W/m² | - |
| 1778076894 | 18.33° C | 41% | 1018.6 hPa | 0 mm | - | 154 W/m² | - |
| 1778076592 | 18.33° C | 40% | 1018.6 hPa | 0 mm | - | 130 W/m² | - |
| 1778076289 | 19.44° C | 40% | 1018.5 hPa | 0 mm | - | 126 W/m² | - |
| 1778075985 | 18.33° C | 42% | 1018.5 hPa | 0 mm | - | 114 W/m² | - |
* Rain latest hour (hover to see other rain measurements)
** Current wind speed in m/s (hover to see current wind gust speed)